Location: Allens Landing
(37.8284°N, 89.7284°W)
Time: 20:26:17
(UTC+00:00)

A-11 Canister half - Visible Passes

Search period start: 08 November 2024 00:00
Search period end: 18 November 2024 00:00
Orbit: 1514 x 1685 km, 47.2° (Epoch: 07 November)

Date Brightness Start Highest point End Pass type
(mag) Time Alt. Az. Time Alt. Az. Time Alt. Az.
08 Nov 10.5 07:58:40 27° E 07:58:40 27° E 08:03:57 10° ENE visible
08 Nov 9.0 09:56:53 56° WSW 09:59:37 89° NNW 10:09:53 10° ENE visible
08 Nov 9.5 11:55:45 10° W 12:05:38 52° N 12:15:29 10° ENE visible
09 Nov 10.8 07:37:20 21° E 07:37:20 21° E 07:40:45 10° ENE visible
09 Nov 8.9 09:35:33 76° SW 09:36:34 88° SE 09:46:50 10° ENE visible
09 Nov 9.5 11:33:46 14° W 11:42:30 53° N 11:52:24 10° ENE visible
10 Nov 11.1 07:15:56 15° E 07:15:56 15° E 07:17:32 10° ENE visible
10 Nov 9.0 09:14:08 80° E 09:14:08 80° E 09:23:46 10° ENE visible
10 Nov 9.4 11:12:21 21° W 11:19:22 54° NNW 11:29:18 10° ENE visible
11 Nov 9.4 08:52:40 61° ENE 08:52:40 61° ENE 09:00:43 10° ENE visible
11 Nov 9.4 10:50:53 30° WNW 10:56:15 55° NNW 11:06:13 10° ENE visible
12 Nov 9.8 08:31:08 46° ENE 08:31:08 46° ENE 08:37:39 10° ENE visible
12 Nov 9.3 10:29:21 39° WNW 10:33:07 56° NNW 10:43:07 10° ENE visible
13 Nov 10.2 08:09:35 34° ENE 08:09:35 34° ENE 08:14:35 10° ENE visible
13 Nov 9.2 10:07:47 49° WNW 10:10:00 57° NNW 10:20:02 10° ENE visible
13 Nov 9.6 12:06:48 10° WNW 12:16:42 52° N 12:26:31 10° E visible
14 Nov 10.6 07:47:58 25° ENE 07:47:58 25° ENE 07:51:30 10° ENE visible
14 Nov 9.2 09:46:10 58° NNW 09:46:53 59° NNW 09:56:57 10° ENE visible
14 Nov 9.6 11:44:22 12° WNW 11:53:34 51° N 12:03:23 10° E visible
15 Nov 10.9 07:26:20 18° ENE 07:26:20 18° ENE 07:28:26 10° ENE visible
15 Nov 9.3 09:24:32 59° N 09:24:32 59° N 09:33:52 10° ENE visible
15 Nov 9.6 11:22:44 18° WNW 11:30:25 51° N 11:40:15 10° E visible
16 Nov 11.2 07:04:40 12° ENE 07:04:40 12° ENE 07:05:21 10° ENE visible
16 Nov 9.5 09:02:52 53° NNE 09:02:52 53° NNE 09:10:47 10° ENE visible
16 Nov 9.6 11:01:04 24° WNW 11:07:17 50° N 11:17:07 10° E visible
17 Nov 9.9 08:41:12 43° NE 08:41:12 43° NE 08:47:42 10° ENE visible
17 Nov 9.6 10:39:23 31° NW 10:44:09 50° N 10:53:58 10° ENE visible
